Starlink 32334

operational
NORAD ID: 62023 Int'l Des: 2024-213 Owner: SPXS Country: US Constellation: starlink
LEOCIRCULAR

关于 Starlink 32334

正在加载描述...

实时位置

正在加载3D地球...

即将过境

高度历史

Altitude vs Time

uPlot chart will show altitude changes over time

两行轨道根数

1 62023U 24213R 25259.72192910 .00029505 00000-0 10045-2 0 9992
2 62023 53.1573 255.8966 0001407 88.4074 271.7087 15.30193857 46524
Epoch: Sep 16, 2025 • Age: 32 hours

当前状态

高度 479.3 km
速度 7.63 km/s
星下点 47.04°N, 68.72°W
发射日期 Nov 18, 2024
运行时间 0.8 years
类型 internet

技术详情

分类 Payload
质量 730.00 kg
干质量 700.00 kg
总质量 730.00 kg
长度 0.30 m
直径 4.10 m
跨度 29.00 m
形状 Box + pan
制造商 SPXS
平台类型 Starlink V2M
阶段状态 In Orbit
所有者/国家 SPXS/US

大型星座

Loading constellations...